{"data":{"norad_id":63986,"intl_designator":"2025-100E","name":"SCS-01 E","alt_names":[],"object_type":"PAYLOAD","status":"ACTIVE","operator":null,"country":"PRC","launch_date":"2025-05-14","launch_site_code":"JSC","launch_vehicle":null,"mission":null,"orbit_class":"UNKNOWN","rcs_meters":null,"size_class":null,"mass_kg":null,"dimensions":null,"purposes":[],"wikipedia_slug":null,"has_3d_model":false,"image_url":null,"decayed_at":null,"tle_current":{"epoch":"2026-05-25T03:50:19.686048Z","epoch_age_seconds":51453,"freshness":"FRESH","line1":"1 63986U 25100E   26145.15995007  .00013522  00000+0  61703-3 0  9996","line2":"2 63986  97.3631 218.4364 0013204  48.3832 311.8533 15.20654828 26956","mean_motion":15.20654828,"eccentricity":0.0013204,"inclination_deg":97.3631,"raan_deg":218.4364,"arg_perigee_deg":48.3832,"mean_anomaly_deg":311.8533,"bstar":0.00061703,"rev_number":2695,"period_min":94.696046300916,"perigee_km":494.7772142694,"apogee_km":512.95120306125,"semimajor_km":6882.0012086653,"source":"CELESTRAK","updated_at":"2026-05-25T13:38:04.147010Z"}}}